CDT,Max TemperatureF,Mean TemperatureF,Min TemperatureF,Max Dew PointF,MeanDew PointF,Min DewpointF,Max Humidity, Mean Humidity, Min Humidity, Max Sea Level PressureIn, Mean Sea Level PressureIn, Min Sea Level PressureIn, Max VisibilityMiles, Mean VisibilityMiles, Min VisibilityMiles, Max Wind SpeedMPH, Mean Wind SpeedMPH, Max Gust SpeedMPH,PrecipitationIn, CloudCover, Events, WindDirDegrees
2013-5-1,95,76,55,52,39,19,70,33,7,30.03,29.74,29.57,10,9,6,32,10,41,0.00,1,,70
2013-5-2,59,49,41,37,28,22,70,49,27,30.49,30.37,30.06,10,9,5,25,20,38,0.00,5,,21
2013-5-3,68,48,30,22,17,13,61,32,12,30.48,30.27,30.01,10,10,10,9,5,,0.00,0,,184
2013-5-4,79,60,41,16,14,12,35,18,8,29.99,29.91,29.83,10,10,10,10,6,16,0.00,0,,118
2013-5-5,79,64,51,23,19,13,29,18,11,30.17,30.00,29.92,10,10,10,16,9,23,0.00,0,,92
2013-5-6,82,72,62,45,37,24,50,31,20,29.99,29.89,29.78,10,10,10,18,11,32,0.00,2,Rain,114
2013-5-7,91,72,54,47,38,24,67,36,11,29.90,29.82,29.73,10,10,10,18,8,25,0.00,0,,161
2013-5-8,89,74,60,59,35,13,90,38,7,29.84,29.77,29.72,10,10,6,18,10,28,0.00,0,,231
2013-5-9,88,74,61,43,24,15,42,16,9,29.95,29.78,29.71,10,10,4,14,7,29,0.00,0,,257
2013-5-10,79,68,57,52,44,25,67,45,17,30.11,29.96,29.78,10,10,10,23,12,38,0.00,1,,25
2013-5-11,80,64,50,49,42,35,80,47,20,30.17,30.12,30.07,10,10,10,23,7,32,0.00,2,,50
2013-5-12,81,64,48,43,38,32,74,40,18,30.19,30.13,30.05,10,10,7,14,6,20,0.00,1,,91
2013-5-13,84,66,48,46,39,33,63,37,18,30.17,30.10,30.00,10,10,10,15,8,23,0.00,0,,142
2013-5-14,91,75,60,51,45,36,64,40,15,30.04,29.93,29.81,10,10,9,30,11,41,0.00,0,Thunderstorm,162
2013-5-15,96,75,57,54,43,32,87,40,12,29.92,29.75,29.62,10,10,10,29,11,36,0.00,0,,187
2013-5-16,100,78,57,43,30,16,53,21,5,29.72,29.66,29.60,10,10,10,21,9,29,0.00,0,,278
2013-5-17,102,78,57,43,24,16,25,13,5,29.85,29.68,29.61,10,10,10,22,7,30,0.00,0,,196
2013-5-18,100,80,61,48,27,13,58,20,5,29.82,29.66,29.60,10,10,10,21,11,28,0.00,0,,226
2013-5-19,95,75,57,22,19,17,21,12,6,29.83,29.67,29.59,10,10,10,22,10,30,0.00,0,,256
2013-5-20,96,76,57,25,21,17,23,13,6,29.85,29.68,29.56,10,10,10,20,7,24,0.00,0,,262
2013-5-21,88,76,66,43,34,16,39,22,12,29.81,29.71,29.57,10,10,10,22,11,31,0.00,0,,21
2013-5-22,100,78,59,53,36,15,49,26,5,29.79,29.71,29.60,10,10,10,17,10,26,0.00,0,,152
2013-5-23,100,85,70,65,56,37,78,47,15,30.04,29.76,29.66,10,10,10,33,15,41,0.02,1,Rain-Thunderstorm,162
2013-5-24,91,78,66,58,55,52,66,47,27,30.00,29.90,29.80,10,10,10,23,14,34,0.00,1,,132
2013-5-25,91,78,64,61,57,52,81,57,32,30.13,29.95,29.79,10,10,10,22,14,33,0.00,2,Rain-Thunderstorm,119
2013-5-26,100,81,63,64,54,39,84,45,13,29.93,29.80,29.69,10,10,10,43,18,55,0.00,0,,154
2013-5-27,104,86,69,65,55,29,84,45,8,29.75,29.68,29.55,10,10,10,22,15,32,0.00,0,,168
2013-5-28,91,82,72,65,63,59,78,57,34,29.63,29.56,29.48,10,10,10,25,18,33,0.00,0,,145
2013-5-29,97,82,70,65,40,18,78,36,6,29.69,29.52,29.44,10,10,10,26,18,38,0.00,1,,217
2013-5-30,100,80,62,62,37,23,93,29,7,29.78,29.62,29.53,10,10,10,18,9,26,0.00,0,,233
2013-5-31,105,84,66,63,40,21,90,32,6,29.85,29.64,29.54,10,10,10,21,9,36,0.00,0,,213